Погода в Мельникове

Россия / Калининградская область     54°52′25″N   20°28′12″E
темп.,
°C
ветер,
м/с
пор.,
м/с
влажн.,
%
обл.,
%
осадки,
мм/ч
давл.,
гПа
погр.,
м
11 апреля, вс
вс1123:00+2всв2294100 0.0 102015
02:00+2в2293100 0.0 102033
05:00+3в3588100 0.0 1020150
08:00+5в51091100 0.0 1019353
11:00+9юв6980100 0.0 1018487
14:00+16ююв61062100 0.0 10161198
17:00+16ююв61258100 0.0 1015768
20:00+11ююв4117773 0.0 1016181
12 апреля, пн
пн1223:00+10ююв4981100 0.0 1016206
02:00+10ююв51177100 0.0 1016303
05:00+10ююв51182100 0.1 1016305
08:00+10ююв5118782 0.2 1016412
11:00+13ю577599 0.0 1016813
14:00+7ссз6892100 0.6 1018290
17:00+5сз5789100 0.0 1018397
20:00+4зсз5886100 0.6 1020542
13 апреля, вт
вт1323:00+4зсз51086100 1.2 1021656
02:00+4сз4989100 1.5 1022666
05:00+4зсз3889100 0.0 1022351
08:00+5сз4774100 0.0 1023576
11:00+6сз5661100 0.0 1024915
14:00+8сз5549100 0.0 10251249
17:00+6ссз4554100 0.0 1024796
20:00+3ссз2587100 0.0 1025168
14 апреля, ср
ср1423:00+3ссз2687100 0.0 1025267
02:00+3ссз2686100 0.0 1025265
05:00+3с3785100 0.0 1024345
08:00+4ссв5980100 0.0 1025676
11:00+5ссв6866100 0.0 1025922
14:00+7с8961100 0.0 10251142
17:00+6с81372100 0.0 1024594
20:00+5ссв61374100 0.0 1024519
15 апреля, чт
чт1523:00+5ссв81360100 0.0 1024728
02:00+3ссв81469100 0.0 1024687
05:00+3ссв71471100 0.1 1024876
08:00+4ссв71468100 0.1 1024822
11:00+5св71363100 0.0 1025908
14:00+7св6115888 0.0 10251197
17:00+9ссв71056100 0.0 10251263
20:00+6ссв6135996 0.0 1027464